Wind_Speed
2 2 5 6 5 7 7 4 3 4 4 4 3 1 2 3 3 2 1 2 1 4 6 7 10 13 14 14 15 13 8 9 12 13 12 11 10 10 10 11 11 12 10 7 8 12 14 15 18 21 25 28 29 30 30 31 32 32 31 30 28 26 23 20 18 19 22 24 25 26 27 29 30 30 28 27 27 26 28 29 29 29 28 26 25 25
2 5 7 4 1 3 4 5 6 5 3 2 2 2 2 4 4 1 2 1 1 3 4 2 9 14 13 14 14 12 12 13 14 14 15 14 13 11 11 13 12 10 7 6 9 11 12 15 17 20 23 27 29 31 33 33 33 33 31 29 28 25 25 23 19 20 23 25 28 29 28 29 29 28 28 26 25 25 26 28 29 29 28 27 25 23
3 6 3 3 6 7 6 4 4 3 2 2 2 2 3 3 2 1 2 2 1 3 3 4 9 15 14 15 16 14 15 15 14 14 15 14 14 13 13 12 11 10 9 9 10 10 12 15 18 20 22 27 28 28 31 32 30 30 29 28 28 27 29 27 20 20 22 22 25 29 28 29 29 28 28 27 25 24 26 28 29 29 28 27 24 22
4 4 1 4 6 7 5 3 4 3 2 3 2 3 3 1 1 2 1 2 1 1 3 5 7 13 15 14 14 13 12 13 14 13 14 13 14 16 14 10 9 12 12 11 10 9 11 13 17 20 23 25 25 24 27 30 28 28 30 30 29 29 31 29 22 20 21 20 24 29 28 28 28 28 29 28 26 26 27 28 28 28 27 24 22 21
3 2 2 4 3 5 5 5 6 5 4 4 5 6 5 2 2 2 2 0 2 1 1 5 7 9 8 8 9 5 4 9 10 9 12 12 13 14 12 11 12 14 13 12 11 8 9 12 15 19 22 24 25 26 29 32 32 30 31 31 29 29 30 29 23 22 25 25 27 28 26 26 26 25 27 28 28 29 30 30 30 28 27 24 23 23
2 3 5 7 3 2 5 5 6 6 4 3 5 9 8 3 2 1 2 1 3 1 1 3 5 5 3 8 11 5 4 10 6 6 13 13 10 9 10 11 11 11 11 11 11 8 8 11 13 16 20 23 26 30 31 33 34 32 30 29 29 28 30 28 23 26 31 30 31 32 30 29 29 27 29 32 34 33 32 32 31 30 28 26 24 25
1 2 3 7 6 4 4 4 5 6 5 3 2 5 6 2 2 3 1 1 3 1 1 1 4 6 7 13 12 4 8 13 7 8 14 13 10 8 8 10 9 9 8 8 9 9 8 10 11 14 19 23 26 29 31 31 32 31 27 27 28 26 29 28 23 28 34 33 33 35 34 34 34 32 32 34 34 33 32 32 32 31 28 26 25 26
4 4 3 5 7 6 4 4 5 8 6 1 1 0 3 4 4 3 3 3 2 2 1 1 2 5 8 11 6 1 7 11 9 11 13 11 9 8 8 8 9 8 6 5 6 7 8 10 12 13 17 23 26 26 27 28 29 28 25 26 27 24 27 27 22 28 35 34 34 35 35 34 34 33 32 32 32 31 31 32 32 31 29 27 27 27
3 5 7 7 6 5 5 0 4 10 5 1 1 1 2 3 2 3 2 2 0 3 3 4 3 4 8 8 2 2 5 10 10 13 13 9 6 5 6 7 6 6 4 4 5 5 6 8 10 11 13 19 23 23 24 26 28 28 26 25 27 25 26 27 26 31 35 35 35 35 33 29 29 30 29 31 31 31 32 31 31 31 30 29 28 27
2 2 4 5 5 4 3 4 1 7 3 2 4 5 6 5 5 3 0 1 1 4 4 6 8 6 7 7 5 1 3 9 10 9 9 5 3 3 4 4 3 2 2 3 4 5 5 5 6 7 9 12 17 21 23 24 26 27 26 25 26 26 24 26 30 33 34 35 35 34 30 24 26 28 28 30 32 32 32 31 31 32 30 29 28 28
1 0 1 2 2 2 5 5 3 1 4 7 6 5 6 4 3 2 1 1 2 5 1 5 7 5 6 4 6 3 2 5 6 5 5 3 2 3 2 1 1 1 0 1 2 3 4 4 4 5 7 9 13 18 20 20 21 23 23 23 24 24 22 24 31 33 34 36 35 34 33 30 30 29 28 31 34 34 33 33 34 33 31 29 29 29
1 2 1 1 1 3 5 6 5 3 3 4 3 3 3 1 1 1 1 1 4 4 1 2 1 4 7 4 2 1 3 4 5 5 5 4 3 1 1 1 1 0 1 1 2 2 2 3 3 5 6 8 11 14 17 17 18 20 21 21 22 23 22 23 29 34 36 34 30 29 32 33 33 31 31 33 35 35 35 34 34 33 32 31 30 30
1 3 2 2 0 2 5 6 5 2 1 2 3 5 4 2 2 3 2 2 5 3 1 3 2 4 10 7 6 10 12 10 9 8 8 7 6 3 2 2 2 1 3 3 3 3 3 3 4 5 7 8 10 13 15 16 17 18 19 20 22 23 23 22 26 32 36 34 29 29 30 30 31 32 33 34 34 34 35 35 35 35 34 31 29 30
3 1 3 4 2 4 7 6 5 4 4 6 7 7 6 4 3 5 2 1 4 1 2 2 1 4 9 7 8 15 15 8 7 11 11 9 10 8 4 3 3 5 5 4 5 5 5 5 5 7 8 9 10 12 14 16 17 17 17 19 21 22 23 23 24 28 32 33 32 35 33 25 25 30 33 33 33 33 35 36 36 36 35 32 30 30
6 4 6 9 4 7 11 8 5 7 7 6 3 3 5 5 4 5 3 2 3 1 2 1 2 5 5 2 2 7 8 5 5 8 7 8 10 9 7 6 6 8 7 4 5 6 6 6 7 7 8 10 11 13 15 16 17 17 17 19 21 22 23 24 24 25 27 28 28 33 34 28 25 30 32 33 33 33 34 36 37 37 36 33 31 30
5 5 4 3 2 10 12 4 3 6 5 3 1 0 4 4 2 1 1 0 1 1 1 3 4 6 5 5 7 9 9 7 5 4 4 8 9 7 9 8 7 8 7 4 5 7 6 6 7 8 9 10 12 14 16 17 19 19 18 18 21 22 23 24 25 25 25 26 25 28 34 33 31 32 32 33 34 33 35 37 36 36 35 33 32 30
3 3 2 2 1 6 5 1 3 2 3 4 3 5 3 1 2 2 0 2 1 5 4 3 6 8 6 9 10 11 14 12 7 5 6 8 7 7 9 7 5 7 5 4 5 6 5 5 6 8 9 11 13 16 18 19 21 21 19 18 20 21 23 24 26 26 25 26 26 27 32 34 33 34 34 34 34 34 34 35 34 35 35 34 33 31
3 2 1 1 2 1 2 1 2 3 1 4 4 5 3 2 1 2 3 1 2 6 4 4 10 10 6 6 2 3 9 12 11 10 11 9 6 8 8 5 5 7 4 4 6 5 5 5 6 8 9 12 14 17 19 20 21 21 19 19 21 22 24 25 25 26 26 26 26 28 33 34 33 34 35 34 34 35 35 35 34 34 34 33 32 32
3 3 0 1 1 1 2 2 3 1 1 1 1 2 2 2 3 3 4 4 4 6 3 5 8 7 8 8 3 3 6 7 9 9 10 11 10 9 7 5 7 7 5 5 5 4 4 5 6 8 10 12 15 17 18 19 21 21 20 20 21 22 24 24 24 25 26 26 26 27 31 33 33 33 35 36 35 35 36 36 34 33 33 31 31 33
3 5 3 1 1 1 2 5 7 5 2 2 0 2 0 2 3 3 3 3 5 6 4 4 5 5 8 7 6 11 10 8 10 8 7 10 10 8 6 4 6 7 6 5 4 4 3 4 7 9 12 13 15 17 18 19 21 23 22 21 21 21 22 23 24 25 26 26 26 27 29 31 32 33 33 34 36 35 35 35 34 34 33 31 31 33
3 4 4 1 1 2 5 7 9 10 8 5 5 6 4 2 0 2 3 1 3 5 5 5 6 7 6 4 6 11 9 8 10 7 5 6 6 4 5 5 4 4 5 4 3 2 2 2 4 8 11 13 15 17 18 20 21 23 23 22 22 21 21 23 25 27 27 28 29 29 30 30 33 34 33 33 35 35 34 34 34 34 33 31 31 32
4 4 4 4 3 6 5 2 3 6 8 8 8 10 11 8 5 4 6 3 1 3 3 3 6 10 6 2 5 8 6 5 5 5 6 5 3 4 4 4 4 4 4 3 3 2 2 2 3 5 8 11 14 17 19 20 21 22 24 24 22 21 22 22 25 27 28 29 31 31 30 30 31 34 34 34 35 35 34 34 35 34 32 32 31 32
3 2 4 4 4 4 1 3 2 3 3 3 4 7 8 8 9 8 6 3 2 2 0 1 4 10 8 2 2 3 1 3 3 3 6 5 3 4 3 3 4 5 3 1 1 1 1 2 3 4 7 10 13 16 19 21 21 22 24 25 24 24 24 23 24 26 26 27 31 32 31 31 32 34 34 34 34 34 34 35 34 33 32 32 32 33
3 1 4 4 1 1 2 1 1 2 1 4 7 5 4 5 5 4 1 1 3 4 3 3 4 10 9 2 2 3 1 2 4 4 6 6 4 4 4 3 3 5 5 3 2 2 1 2 4 4 6 10 12 14 18 21 22 22 24 26 26 26 25 24 25 26 26 28 31 33 33 34 34 34 35 35 35 35 35 35 34 33 32 32 33 34
4 3 5 5 4 3 2 3 3 2 4 6 6 4 6 7 3 2 2 1 4 6 9 8 6 9 8 2 4 2 3 5 7 5 6 6 5 4 4 4 4 5 5 4 4 4 4 5 5 5 7 10 12 12 16 20 21 22 25 27 28 27 24 24 26 28 29 29 31 33 35 36 36 35 36 36 36 36 36 35 34 33 32 32 33 33
4 4 5 7 7 7 7 6 5 5 5 3 4 6 10 13 11 6 4 5 6 8 10 9 8 10 12 5 4 4 5 6 8 6 5 6 7 6 5 5 5 4 5 6 5 5 5 4 4 5 8 11 11 12 17 20 20 22 25 26 28 28 26 25 27 29 31 31 30 32 35 37 37 37 37 37 37 37 37 36 34 33 32 32 33 32
1 2 5 9 11 10 11 9 3 6 7 7 10 12 12 14 15 10 6 7 10 10 10 11 11 15 20 16 11 9 7 7 8 7 6 6 8 8 6 6 5 4 5 6 4 4 4 3 4 7 9 10 12 14 18 21 20 21 24 26 27 28 28 27 29 30 32 33 33 33 34 37 39 38 38 38 38 38 37 36 34 33 33 33 34 33
3 3 7 10 14 13 15 15 5 8 10 13 14 15 13 13 14 13 11 13 12 10 11 13 16 19 20 19 20 17 10 7 7 8 7 6 6 6 6 6 6 6 6 7 7 6 5 5 6 7 8 10 13 15 18 22 21 20 23 25 26 28 29 30 30 30 31 34 35 33 34 36 38 38 39 38 38 38 37 36 34 34 34 35 35 34
3 6 9 10 13 14 17 18 9 7 9 10 12 14 14 14 15 16 17 18 16 13 13 16 20 20 17 18 23 20 11 8 10 9 5 3 4 5 6 7 8 9 9 8 8 8 8 8 8 6 7 10 14 15 17 21 22 20 21 24 25 27 30 30 30 30 30 32 36 36 35 35 36 37 38 38 37 38 37 35 34 33 34 34 34 33
4 5 10 11 12 15 18 19 13 8 8 8 8 9 10 12 17 19 19 21 23 20 16 17 21 21 17 19 22 17 9 7 7 4 3 3 5 7 8 8 8 9 9 9 9 9 9 9 8 7 8 10 14 16 18 21 23 20 21 24 26 27 29 30 31 31 28 30 34 34 34 35 35 35 36 37 37 37 36 35 33 33 33 33 32 31
4 5 6 6 8 14 18 19 18 12 7 8 8 7 8 11 15 19 18 18 20 19 17 18 20 20 17 15 14 12 6 2 4 6 6 8 8 8 8 8 8 9 10 10 10 9 9 9 8 8 9 12 17 20 21 23 22 19 21 24 26 27 28 29 31 31 28 28 28 27 29 32 33 34 35 36 36 36 35 34 32 31 32 31 30 30
4 3 0 2 5 11 15 18 17 10 4 6 10 11 13 14 13 13 13 12 14 16 17 17 16 16 15 9 8 12 8 5 9 10 9 9 9 9 9 9 9 10 11 10 10 9 9 8 8 8 10 14 18 19 21 22 20 18 21 24 26 26 26 28 31 30 28 26 23 23 27 30 30 32 34 35 35 34 33 32 30 29 29 29 29 29
6 4 3 4 6 10 15 15 11 7 4 7 14 19 21 19 14 10 10 13 18 17 15 14 13 14 16 12 11 14 11 8 11 11 9 10 10 10 11 11 12 13 13 13 13 12 9 6 7 9 12 14 15 15 16 18 18 19 22 23 23 24 25 27 29 29 27 26 24 25 28 28 29 31 33 33 33 32 31 30 29 29 29 29 29 29
7 7 5 5 4 8 13 8 3 7 10 11 14 18 20 18 16 16 17 19 20 17 13 13 12 13 16 17 15 15 11 9 10 10 11 12 11 11 13 15 16 16 15 16 15 12 8 5 6 11 15 15 14 14 14 15 16 18 20 20 21 22 24 26 27 26 25 26 26 27 28 28 28 29 31 31 30 30 30 30 29 29 29 29 29 28
7 8 6 4 3 5 7 4 5 9 11 9 8 11 14 15 18 22 24 23 21 18 16 16 18 19 20 20 16 12 8 7 8 11 15 16 14 15 16 17 17 16 14 15 13 8 5 5 8 13 16 15 14 13 13 14 15 16 17 18 19 20 22 24 25 24 23 24 26 27 27 28 28 28 29 29 29 29 29 29 29 29 28 28 28 28
9 8 5 4 4 4 4 7 8 6 5 5 6 5 7 11 16 17 18 21 21 19 17 18 21 25 25 22 17 12 7 4 5 11 16 16 15 14 13 14 18 18 13 10 8 7 8 11 13 15 15 13 12 12 12 13 13 15 16 16 17 19 20 22 23 22 22 23 25 26 26 27 28 27 27 28 28 28 28 28 27 27 27 27 27 27
12 9 5 5 6 5 6 8 7 8 9 8 10 10 7 9 13 12 12 18 19 17 18 19 23 26 23 20 17 10 3 2 6 15 19 16 14 15 15 15 18 16 9 7 10 14 16 16 15 14 13 11 11 12 12 12 12 14 15 14 15 17 18 20 20 19 20 22 23 25 26 27 28 27 27 28 28 27 28 27 27 27 26 26 26 26
13 11 8 7 6 6 8 8 7 10 10 10 15 17 11 10 11 10 10 14 16 17 18 18 22 24 20 19 15 6 2 3 9 17 17 11 14 18 19 16 13 9 7 10 14 15 15 14 13 13 12 12 12 12 11 11 12 14 15 15 15 17 18 18 17 17 20 21 22 24 25 26 27 27 26 27 27 27 27 27 26 26 26 25 25 25
16 12 11 9 7 8 9 7 7 10 8 9 16 15 8 8 8 7 7 10 15 21 18 15 19 21 18 18 12 6 4 6 12 16 12 9 14 16 17 15 11 9 10 11 11 11 12 12 11 11 11 11 12 12 12 12 14 15 16 16 16 17 17 16 17 19 21 22 22 23 24 24 26 26 26 26 26 26 26 26 25 25 24 24 23 23
15 10 10 10 8 10 12 8 6 8 6 8 13 8 3 8 11 9 8 9 15 21 14 13 18 19 17 17 10 8 8 11 14 15 8 5 8 7 8 10 8 5 5 6 7 8 8 8 8 8 9 11 12 12 12 14 15 16 16 16 16 16 16 17 19 20 21 21 21 22 22 23 24 25 25 25 25 25 24 24 24 24 23 23 22 22
9 8 9 9 8 12 13 9 7 6 4 7 11 5 5 8 9 10 10 9 14 16 9 12 18 17 16 15 9 8 13 16 16 12 1 4 3 2 1 1 1 4 4 3 5 6 6 6 6 7 8 10 12 13 15 17 17 15 16 16 15 15 16 17 18 18 19 19 20 20 21 22 24 24 24 24 24 24 23 23 23 23 23 23 22 21
6 5 5 7 8 9 9 8 9 6 5 9 11 4 6 7 8 9 9 7 9 10 6 9 14 14 14 14 11 11 14 17 18 12 2 3 3 3 3 3 5 5 5 6 7 9 9 7 7 8 9 11 13 15 16 18 17 16 17 16 14 14 15 15 16 17 17 18 19 20 21 22 23 23 22 22 22 22 22 22 22 23 23 23 22 21
5 4 4 6 7 7 7 8 8 5 3 8 9 2 4 10 10 6 5 4 3 5 6 6 9 11 11 11 12 13 15 15 14 8 4 4 3 4 5 5 5 6 6 7 8 11 12 10 9 10 12 13 14 16 17 18 18 18 17 15 13 14 14 14 15 16 17 18 19 20 21 21 21 21 21 21 21 22 22 22 21 22 22 23 23 22
4 4 4 4 4 5 6 6 4 2 3 4 5 2 3 8 7 5 5 5 3 2 3 4 6 9 10 11 12 13 14 14 11 6 5 5 4 4 5 5 5 6 7 7 8 13 16 12 10 12 13 14 16 16 16 17 18 18 16 13 14 15 15 16 17 18 18 19 19 20 20 20 20 20 20 20 21 22 22 23 23 23 23 23 24 24
5 4 3 3 2 3 4 4 6 7 4 3 4 3 5 9 10 8 7 6 5 2 2 2 5 6 5 7 9 9 10 10 9 7 6 5 4 4 4 5 5 6 7 7 10 14 16 14 14 14 13 13 14 15 15 16 18 18 16 15 16 17 17 18 19 19 19 19 19 19 19 19 19 19 19 20 21 22 23 24 24 23 23 23 24 24
3 3 3 2 1 3 4 5 6 7 8 7 7 5 3 6 8 6 5 5 5 4 3 4 5 6 6 6 7 8 7 5 5 5 4 5 5 4 4 4 4 5 7 8 10 13 16 17 17 15 14 12 12 14 14 15 18 19 18 18 19 18 19 20 20 20 20 19 19 19 19 19 19 19 20 20 21 21 22 23 23 22 22 22 22 22
3 4 3 3 4 4 5 6 6 8 9 10 11 9 6 5 5 3 2 4 5 4 5 5 5 6 6 4 6 9 7 3 3 4 4 5 5 6 6 6 5 6 6 8 11 14 17 17 15 14 15 13 12 12 13 15 17 18 19 20 20 19 20 21 21 22 21 21 20 20 20 20 20 20 20 20 20 20 21 21 21 22 21 21 21 20
3 3 4 5 6 6 6 8 9 10 9 9 9 9 7 6 5 4 4 4 5 5 5 5 4 4 3 3 4 6 6 3 3 3 3 4 4 5 5 5 6 7 7 10 14 17 17 16 15 16 16 14 13 13 14 16 17 18 18 19 19 20 21 21 22 22 22 22 22 21 21 21 21 21 20 20 20 20 21 21 21 21 21 21 21 21
4 3 3 4 5 5 5 8 8 8 7 8 9 8 7 7 6 6 5 4 5 6 5 5 4 3 3 3 2 1 2 2 1 1 1 1 1 3 3 4 7 8 9 13 16 16 16 17 18 19 17 15 16 17 17 19 19 18 18 18 19 20 22 22 22 22 22 22 22 22 21 21 21 21 21 20 19 19 18 18 18 18 18 17 18 17
4 6 7 6 7 6 6 6 6 5 7 9 8 7 7 7 6 7 7 5 6 7 6 4 4 3 2 2 2 3 2 1 1 3 2 1 2 2 2 3 5 6 8 13 15 14 15 18 19 20 19 18 18 19 20 21 21 20 19 19 19 21 22 24 24 23 23 23 23 22 22 22 22 22 22 21 20 18 16 13 12 11 11 12 12 12
7 8 9 8 9 9 9 8 6 3 6 11 11 10 8 6 5 8 10 9 9 8 6 5 4 3 2 2 1 2 3 3 4 5 5 3 4 6 6 6 6 6 8 13 14 14 15 17 18 19 19 19 19 20 21 21 21 21 21 21 21 21 23 25 26 25 24 24 24 24 24 24 24 23 22 21 20 20 19 16 12 8 7 8 9 9
Wind_Direction
297 196 197 214 207 191 188 182 115 92 86 112 127 179 217 246 252 214 89 41 4 264 254 252 264 269 269 268 269 272 265 253 260 260 258 254 250 250 248 249 246 244 247 246 251 252 242 235 233 229 226 222 219 219 217 215 215 214 215 216 217 217 211 206 203 201 203 202 202 205 210 212 213 213 215 223 225 220 219 222 220 215 211 209 203 204
234 222 221 223 112 120 144 118 109 114 96 118 172 224 229 236 250 147 65 24 82 265 269 303 290 276 268 269 268 268 267 262 257 255 258 256 253 251 248 249 250 249 250 242 238 233 228 229 227 223 222 218 215 215 214 213 213 212 212 213 213 212 207 205 203 201 201 200 201 202 206 211 209 206 210 217 219 218 220 214 208 207 206 204 202 208
208 230 227 98 91 91 97 130 142 136 138 154 175 230 244 237 244 155 63 26 99 250 289 7 309 285 277 270 264 258 256 260 258 254 260 264 262 257 251 249 250 255 254 244 233 213 211 221 221 220 219 217 216 214 213 212 210 209 209 209 210 211 211 208 205 202 201 200 202 202 205 207 206 204 207 215 218 217 214 207 203 204 202 201 203 206
199 240 350 99 135 127 104 151 158 140 181 201 197 218 238 190 223 243 81 64 105 245 307 335 304 287 282 271 260 251 247 261 267 265 266 262 259 259 259 261 259 258 256 249 239 209 195 207 213 216 217 216 214 211 212 210 207 206 207 208 208 211 212 208 204 201 199 198 201 203 206 207 205 205 206 212 217 213 209 205 200 198 198 200 204 206
187 63 90 123 146 144 134 162 175 186 210 216 218 225 238 207 208 259 35 5 224 148 313 305 289 277 276 274 270 249 231 263 266 270 270 254 247 254 261 265 257 252 252 254 252 221 188 198 208 213 216 215 212 212 213 211 209 207 209 209 207 209 210 206 202 200 200 199 199 200 203 203 202 204 205 207 209 206 205 202 196 197 200 200 202 209
199 102 138 133 106 123 146 173 192 202 218 225 220 227 243 247 168 191 49 326 260 204 49 324 286 270 293 284 272 250 241 260 244 245 264 259 246 243 253 259 252 247 245 249 255 243 209 204 206 210 213 214 215 216 217 215 213 210 209 207 206 208 208 204 202 202 203 201 199 198 198 197 197 200 203 204 204 203 204 204 200 199 200 199 202 208
152 124 144 142 145 144 161 212 204 198 218 232 219 231 239 223 145 186 171 258 274 290 42 359 290 288 304 287 277 266 263 267 257 247 257 261 256 244 247 255 256 256 246 240 245 244 230 213 205 208 212 215 218 220 219 216 214 211 207 204 204 205 206 204 201 202 203 201 201 201 200 201 200 201 204 206 207 207 207 208 203 198 198 201 203 206
131 147 154 144 146 151 184 220 188 187 205 216 34 313 189 176 189 187 181 227 280 336 261 184 248 268 278 281 291 9 273 272 267 260 255 250 247 244 249 254 257 260 255 248 244 236 231 220 214 214 215 220 223 222 219 216 214 210 205 204 203 203 206 204 200 202 203 203 203 204 204 205 205 203 205 206 208 210 209 206 201 199 201 204 205 207
120 173 179 162 158 176 188 176 164 182 196 1 29 61 115 133 142 138 163 207 63 318 258 168 174 249 257 253 247 62 284 274 264 261 261 254 239 233 245 249 251 263 263 258 253 243 233 224 223 221 219 226 227 224 222 219 216 211 207 206 205 206 207 206 206 206 205 206 206 205 204 205 206 206 208 209 207 206 204 201 200 203 206 207 209 210
51 205 202 178 182 189 140 40 190 192 177 132 142 101 89 83 75 91 127 117 129 272 246 163 178 250 270 231 206 138 267 266 262 259 267 279 273 236 241 245 241 258 262 251 251 250 244 232 229 226 222 226 227 227 225 220 216 212 207 205 205 205 204 206 210 208 207 208 207 205 205 204 204 206 208 209 205 202 202 204 205 206 208 209 209 208
67 73 299 221 200 144 105 66 18 14 115 145 153 106 93 83 65 72 42 41 266 262 219 150 184 248 289 213 183 179 223 263 269 267 275 315 312 247 227 247 215 126 205 261 263 253 248 244 237 230 221 216 222 227 223 214 211 208 204 203 204 205 201 205 210 208 208 210 208 207 208 208 209 206 203 203 202 203 205 207 208 207 207 208 208 207
95 170 179 184 77 105 113 83 45 50 120 154 160 133 129 109 113 164 77 117 251 247 88 29 319 261 258 220 154 286 289 279 277 287 295 304 303 229 125 189 192 67 325 303 287 268 255 242 224 221 216 205 210 215 210 206 206 205 204 205 205 205 202 205 209 208 208 208 208 208 209 211 212 207 203 204 205 207 207 206 207 207 207 208 209 209
208 204 138 83 6 193 152 107 73 66 224 221 165 161 192 218 204 238 214 178 244 242 76 345 331 248 253 267 292 277 264 250 242 255 272 280 283 263 191 205 226 272 276 271 272 265 258 241 212 210 211 203 203 205 202 201 201 202 205 207 208 207 204 206 209 208 208 208 209 210 210 211 213 212 210 210 211 212 210 208 208 208 208 209 210 210
205 226 135 153 188 216 193 165 148 174 201 200 179 175 195 195 211 233 201 228 273 265 52 343 279 246 272 288 270 261 266 262 237 239 244 253 264 264 244 236 266 272 260 255 260 258 250 239 223 215 210 204 204 203 199 198 197 199 204 208 211 211 207 209 210 207 209 211 212 214 214 213 215 216 215 214 216 217 215 213 212 211 211 211 212 213
216 244 177 173 157 173 198 206 165 151 172 199 191 179 206 196 211 229 202 235 265 91 74 345 241 229 250 328 262 258 281 289 251 245 246 249 257 269 278 268 267 270 262 247 250 254 249 238 229 220 213 207 205 201 197 196 196 198 203 208 212 211 209 211 212 208 209 213 215 217 216 215 217 219 220 220 221 224 224 219 215 214 215 215 215 216
227 263 164 150 129 168 187 209 112 129 163 197 53 187 234 217 184 241 329 134 44 13 206 202 249 242 242 299 285 265 272 268 238 226 234 246 244 254 270 262 250 258 257 242 243 249 243 229 222 217 212 208 205 202 199 197 197 198 202 207 209 210 210 212 213 211 212 214 215 216 216 218 221 221 223 224 223 226 227 222 217 217 220 221 219 218
213 282 83 53 291 174 184 168 136 170 181 159 169 200 230 345 98 140 194 81 77 268 241 183 251 269 281 282 262 246 256 256 246 243 240 236 218 218 248 254 250 252 240 225 239 245 237 221 217 215 210 206 204 204 205 203 202 200 200 204 207 208 210 213 214 214 214 214 214 215 215 218 221 223 224 225 222 222 222 221 220 221 224 224 220 218
209 259 60 102 193 158 349 11 104 358 26 144 188 190 145 22 31 185 227 171 178 246 252 194 237 259 273 271 234 181 244 252 254 259 258 252 228 221 229 216 233 256 246 235 244 244 241 228 218 216 211 211 210 210 211 209 207 204 201 203 205 206 209 212 213 214 214 214 215 217 217 218 221 222 224 225 223 222 223 223 223 225 226 224 220 220
201 233 272 63 224 93 39 215 164 62 19 89 230 178 127 216 206 186 214 215 206 229 241 215 229 246 243 245 257 224 228 245 254 248 249 255 249 244 238 194 209 239 241 241 242 232 226 218 213 213 211 214 214 214 215 212 210 209 207 207 207 208 210 210 212 215 216 215 216 217 218 220 222 223 224 225 224 225 226 226 226 227 226 223 223 224
165 229 230 73 316 79 122 213 200 170 113 31 272 165 7 259 212 184 190 210 223 219 227 231 225 237 234 226 244 249 238 229 240 238 238 251 251 255 264 232 211 220 219 221 222 214 210 206 210 214 214 215 214 213 214 213 212 213 211 211 211 211 211 210 213 216 216 215 216 216 218 221 223 224 225 225 226 228 229 229 228 225 224 225 228 226
133 223 229 109 337 209 186 208 205 181 163 171 194 184 191 215 253 271 232 187 240 226 221 241 248 255 249 191 207 242 246 232 234 242 243 250 259 266 268 262 239 214 210 206 192 184 191 208 221 224 222 219 216 214 213 212 213 214 214 213 212 212 212 211 214 215 214 215 216 217 219 220 222 224 224 225 228 230 230 230 226 224 224 227 229 225
176 201 205 156 179 205 199 205 226 201 181 184 193 191 197 190 159 216 224 178 262 256 225 242 261 265 267 144 197 228 241 246 236 237 247 255 266 261 255 256 251 232 211 196 184 171 169 207 226 227 226 222 217 213 210 211 212 213 215 215 212 213 213 212 213 215 216 217 217 217 218 219 221 224 224 224 227 228 229 227 225 225 227 228 228 224
151 165 206 192 197 207 178 44 3 291 270 246 234 210 207 198 185 208 219 172 167 208 253 307 270 270 266 139 173 235 256 314 291 238 249 259 257 264 273 257 257 269 270 237 212 196 156 208 219 213 222 225 223 216 209 208 211 215 218 217 214 215 215 213 213 215 214 215 216 217 218 220 222 223 223 224 225 226 226 225 225 228 229 229 226 221
105 140 219 220 213 121 56 66 85 1 301 245 249 229 212 219 213 219 218 132 193 178 190 224 235 267 271 147 117 287 318 297 274 239 248 265 273 277 281 271 259 269 278 280 270 275 262 232 225 209 216 225 225 221 213 208 209 216 221 220 219 219 216 214 214 214 212 214 217 218 218 220 222 222 223 223 224 224 224 225 227 229 230 229 225 218
165 187 208 214 226 206 187 200 201 199 198 227 244 202 197 216 196 99 91 189 234 200 198 224 232 252 265 117 112 245 247 249 252 228 229 257 268 263 263 265 251 245 252 244 223 221 218 215 213 205 215 224 223 221 220 214 209 215 222 222 223 222 217 215 216 216 215 215 217 218 219 220 221 221 223 223 224 224 224 225 227 228 228 227 223 218
187 198 187 198 222 220 214 218 206 188 183 215 244 203 199 204 186 168 187 201 222 216 205 220 236 249 259 243 163 197 213 240 252 237 221 241 255 256 250 249 245 242 250 242 219 213 218 214 213 213 218 225 221 218 226 224 215 216 223 224 224 223 219 218 219 219 217 215 215 216 218 219 220 222 223 224 224 224 224 224 225 226 226 224 220 219
135 248 208 209 225 230 238 246 184 128 156 192 216 214 206 205 196 192 210 212 217 229 227 220 225 244 256 257 251 239 212 214 241 242 232 238 248 251 247 247 251 259 268 264 252 245 243 237 234 226 220 224 225 226 232 233 223 218 223 225 225 224 221 220 221 220 218 217 216 217 218 218 220 222 223 223 224 224 224 224 225 225 224 221 219 221
105 249 232 228 239 243 255 260 214 148 185 204 210 213 206 200 199 199 216 223 217 228 239 225 220 235 251 259 261 255 229 203 226 236 238 245 251 250 247 252 257 252 251 253 249 248 246 242 239 229 220 225 230 232 237 240 233 224 224 227 226 225 223 221 221 220 218 218 217 217 219 219 220 221 222 223 224 223 223 224 224 225 223 221 220 221
148 238 237 238 252 255 261 266 249 188 208 217 214 218 209 193 191 200 217 223 220 223 234 233 231 235 243 252 257 255 241 225 226 226 230 252 264 261 249 243 244 240 237 238 240 237 232 232 233 226 224 228 229 230 235 239 236 227 225 228 227 226 224 220 220 220 218 218 218 218 219 219 219 220 221 222 221 221 222 222 223 223 223 222 222 223
168 232 240 241 259 263 261 265 260 236 237 244 234 232 226 204 197 203 215 220 222 226 230 239 246 245 239 240 250 257 257 246 236 216 203 228 242 247 243 238 238 237 235 236 237 235 230 228 225 224 226 227 226 226 229 234 235 230 228 229 227 226 224 219 218 218 215 216 218 218 218 219 219 219 219 218 219 219 219 220 220 220 221 222 223 223
194 219 238 233 251 260 258 259 259 251 240 246 246 239 237 226 212 213 219 222 226 233 238 243 249 253 248 241 254 271 271 240 240 224 216 226 228 231 239 239 242 246 243 237 235 232 228 224 220 220 221 225 228 229 230 234 235 233 231 231 228 226 223 219 217 216 215 216 216 214 215 218 217 217 216 216 217 217 217 218 218 219 220 220 220 220
202 209 129 173 228 249 249 250 254 255 242 255 259 243 228 224 216 216 222 226 228 233 240 243 245 253 255 246 254 263 247 208 229 226 218 229 229 226 235 237 236 240 240 238 238 235 228 219 214 214 219 228 234 233 233 235 235 233 234 233 230 227 222 219 218 217 217 217 213 211 214 215 215 214 214 215 215 214 215 216 216 217 217 216 216 217
180 188 188 197 219 245 249 249 254 258 252 249 248 239 231 229 226 224 228 230 229 227 229 235 232 241 253 253 249 251 240 223 234 231 223 235 235 228 231 232 232 236 240 244 248 248 242 225 214 223 232 238 240 241 243 242 238 238 241 238 232 227 222 219 218 217 217 217 215 214 215 214 212 212 212 212 212 211 211 212 212 214 215 214 214 214
174 183 204 207 210 247 252 248 228 235 238 238 238 237 238 238 234 233 234 231 227 221 224 243 251 253 256 254 249 251 249 237 238 240 237 238 236 233 233 235 239 242 245 248 248 248 245 235 239 248 252 253 255 259 261 254 245 245 245 240 232 225 220 217 215 215 216 217 217 216 214 213 211 210 210 209 208 207 208 209 211 213 214 212 210 208
181 188 205 204 203 251 257 229 211 228 231 240 252 246 241 239 233 234 240 241 235 227 228 243 256 257 253 249 250 259 268 256 245 247 245 239 235 236 239 243 244 242 242 243 240 237 232 235 247 252 254 259 264 266 263 256 248 242 238 233 226 220 216 213 212 213 213 214 216 214 212 211 209 207 206 206 204 204 206 208 209 210 209 208 207 207
204 201 201 196 207 236 238 222 229 249 262 277 283 255 225 229 232 234 244 248 241 233 231 235 241 245 247 249 256 264 275 291 273 253 244 235 233 239 242 243 244 243 239 234 228 227 231 235 240 244 250 258 261 259 257 252 242 231 225 222 218 213 211 210 210 210 209 211 212 211 209 208 206 203 202 202 201 203 204 205 206 206 206 205 205 206
217 211 204 211 210 208 229 235 245 276 282 272 260 244 207 207 221 219 234 249 243 229 226 231 238 244 246 252 259 261 262 314 284 263 251 233 223 235 238 238 245 249 241 216 215 225 232 235 236 240 245 250 250 251 250 242 229 217 211 209 207 205 205 205 206 206 206 208 208 207 207 206 203 200 199 199 199 200 202 203 204 204 204 201 199 202
215 211 204 214 207 198 227 241 241 252 252 243 248 249 228 214 216 199 213 248 255 241 229 229 241 248 251 255 254 235 181 252 263 268 261 220 204 226 235 238 245 244 225 215 214 222 230 232 235 239 240 240 242 242 236 226 213 202 197 196 196 195 195 197 199 201 203 205 206 205 204 203 202 199 198 198 199 200 201 202 202 202 202 199 197 198
214 213 207 218 219 209 221 226 224 237 238 234 249 252 223 188 175 165 204 241 254 250 237 225 239 246 248 251 240 180 174 239 251 264 262 198 195 220 228 231 232 223 224 225 215 216 227 230 231 232 227 224 225 222 216 207 197 188 185 185 186 185 186 190 194 198 201 203 203 203 203 202 201 200 198 198 199 200 200 199 200 199 197 196 196 195
213 214 214 220 217 216 224 228 230 239 237 237 248 251 190 156 145 159 210 229 244 250 234 208 228 238 238 240 223 177 203 228 244 262 265 188 196 216 222 232 231 209 217 226 217 220 222 214 208 202 198 201 203 199 193 187 181 178 177 177 178 180 184 190 196 198 200 200 200 201 201 199 198 198 198 198 197 198 198 197 196 195 192 192 194 193
210 209 213 217 217 218 224 230 241 238 221 239 248 228 155 154 158 186 214 221 239 250 224 194 215 224 229 230 207 195 221 228 238 255 295 114 184 195 179 243 124 124 136 151 184 198 185 177 184 180 179 185 184 178 176 174 169 167 170 171 173 180 187 192 195 194 194 195 195 195 195 194 195 196 197 197 195 194 194 195 194 191 188 188 188 187
214 211 211 215 221 223 221 231 250 248 200 219 238 206 141 177 205 218 227 237 252 252 228 204 210 213 222 225 210 214 229 232 238 246 207 147 190 162 141 132 117 125 134 140 160 170 160 154 157 156 160 168 168 168 170 170 164 162 166 168 171 181 186 187 188 187 187 188 187 187 188 189 191 192 192 193 192 189 188 189 191 189 186 184 183 183
202 207 217 211 216 227 226 225 236 247 210 218 231 202 165 213 230 250 262 275 280 257 242 226 212 211 219 221 218 225 233 237 242 242 214 198 180 148 165 165 146 144 143 144 161 166 159 149 142 148 155 158 163 166 169 169 163 160 162 165 170 178 178 176 176 176 177 178 178 179 182 183 186 188 188 188 189 187 185 184 185 185 183 181 179 178
193 202 227 221 213 225 227 223 236 294 326 279 270 295 256 247 269 329 324 293 269 250 257 249 230 226 223 222 224 227 231 238 241 223 203 206 187 172 175 160 151 157 153 150 160 164 162 152 140 146 153 157 164 168 170 171 163 155 157 162 165 168 165 164 167 167 167 170 172 173 177 178 181 183 184 185 185 184 182 180 179 180 179 179 176 174
206 186 196 216 225 233 235 264 299 304 310 315 299 298 304 301 312 338 338 306 290 319 353 294 272 272 267 256 250 240 232 234 228 209 197 191 181 181 174 160 160 157 147 146 156 163 164 152 142 143 147 156 166 168 171 173 163 153 154 157 158 160 158 158 160 160 161 164 165 167 170 172 174 178 179 181 181 180 177 176 174 174 174 175 174 172
208 151 132 165 228 274 255 243 267 286 293 302 298 278 264 287 300 322 330 301 292 315 324 291 288 305 313 298 274 263 258 241 210 198 186 175 177 176 162 156 152 142 140 143 150 159 158 148 142 140 139 148 164 168 169 170 162 156 154 153 155 157 156 156 156 154 156 159 159 163 165 164 165 169 172 174 177 177 174 172 170 169 168 169 170 170
226 172 170 208 219 252 268 247 241 268 287 297 299 292 273 252 254 262 259 260 270 282 281 277 283 292 297 287 265 266 275 264 197 196 181 171 179 177 166 159 149 144 145 146 151 156 152 143 139 139 139 143 154 163 164 161 159 157 153 151 154 156 155 156 154 152 154 155 155 159 162 160 159 161 164 168 171 172 171 171 171 169 168 170 173 176
272 194 194 219 215 221 258 269 266 271 277 275 273 277 279 270 254 241 234 244 262 264 255 252 256 260 268 274 278 286 290 271 224 218 196 178 175 170 165 159 150 145 143 148 155 157 152 147 145 143 141 139 142 151 154 150 150 152 149 150 155 156 154 154 153 151 153 154 154 156 159 160 159 157 159 163 166 167 168 171 174 176 177 180 184 185
326 300 250 246 246 248 265 275 280 287 286 269 251 243 253 264 262 257 248 237 249 259 258 250 243 228 212 212 220 292 292 284 316 356 25 105 143 153 156 149 144 142 144 153 159 160 155 152 150 146 142 140 141 146 147 144 145 148 149 152 158 158 153 151 151 151 152 153 155 157 158 160 160 159 158 159 160 162 166 173 179 182 184 186 188 189
289 280 271 272 273 271 265 261 266 283 286 276 264 253 257 255 247 258 267 255 242 243 239 233 243 251 245 233 188 159 172 179 127 129 129 117 125 131 125 123 121 123 141 152 156 157 154 152 151 149 144 142 145 147 147 146 147 151 153 156 161 161 157 152 151 151 152 155 157 158 159 159 160 161 160 157 155 153 152 157 168 176 181 184 184 185
236 244 254 261 262 265 270 264 246 233 269 276 275 273 271 254 232 251 263 257 246 241 227 216 224 224 214 244 255 183 171 165 158 152 143 140 144 136 134 139 132 126 144 152 151 148 149 151 153 151 146 145 149 149 148 149 151 154 158 161 165 166 162 157 153 152 154 159 161 162 163 162 161 161 161 158 155 151 142 134 132 136 149 164 168 174
Height
837 837 839 837 835 833 834 835 838 843 843 842 846 847 849 849 845 845 850 857 859 850 842 840 838 833 828 822 818 815 815 817 817 815 813 811 809 807 806 805 803 802 800 800 804 805 806 808 808 810 811 813 814 816 818 820 821 823 825 826 828 829 832 832 833 834 835 837 838 839 841 842 843 844 846 847 848 849 851 852 853 855 856 857 858 859
839 840 836 832 833 835 839 843 843 846 847 845 846 848 851 853 847 847 854 857 858 853 840 840 841 832 826 820 814 814 813 812 809 808 806 803 803 801 800 799 798 797 797 798 800 802 803 805 806 807 808 809 810 812 814 815 817 819 821 823 825 826 828 829 830 830 831 833 834 835 837 839 840 842 843 845 846 847 849 850 851 852 854 855 856 857
843 839 834 836 842 845 848 849 845 845 848 847 849 851 850 850 848 850 857 858 857 853 842 845 846 829 819 816 810 810 809 804 801 801 800 799 799 796 794 794 794 794 794 794 796 797 800 802 803 805 805 806 807 809 811 813 815 817 818 820 821 822 824 825 827 827 828 830 831 833 835 836 838 840 841 843 844 846 847 848 849 850 852 853 853 856
844 839 840 845 845 845 851 853 848 847 849 848 849 850 849 851 850 846 853 859 858 856 851 852 851 830 813 809 804 802 803 800 798 798 797 798 796 792 791 791 791 792 791 790 791 793 796 799 800 801 802 803 805 807 808 810 812 813 814 815 817 818 819 822 823 825 827 828 829 831 833 835 837 838 839 841 842 844 845 846 847 848 850 850 852 854
837 843 850 851 845 843 850 854 850 847 847 849 851 847 844 848 850 846 851 857 855 859 860 854 846 826 809 807 802 798 804 802 799 799 796 793 792 790 790 790 789 788 787 787 787 789 792 795 796 797 798 800 801 803 803 805 807 808 810 812 813 815 816 818 820 822 824 825 827 829 831 834 835 836 837 838 839 840 842 842 844 846 847 848 850 852
837 848 851 849 850 848 849 851 849 845 844 848 849 845 841 842 848 852 855 855 849 852 860 858 845 823 807 807 802 795 799 797 794 796 792 786 785 787 787 785 784 784 784 785 786 787 789 791 793 795 796 797 797 798 799 800 803 805 807 809 810 812 813 815 817 819 820 821 823 825 826 828 829 831 832 832 833 835 838 840 842 843 845 846 848 850
842 852 850 846 850 851 850 850 848 846 845 846 848 848 846 846 850 854 855 853 849 849 859 863 853 837 819 802 793 794 796 793 792 792 787 783 782 782 783 781 780 781 781 783 784 785 787 788 790 792 792 793 793 794 796 798 800 802 804 806 808 809 810 812 815 816 817 819 820 821 822 823 824 826 827 828 831 833 836 838 840 842 843 844 846 847
844 852 852 847 848 851 850 846 845 846 844 846 854 856 851 850 853 855 854 853 853 854 859 860 856 854 840 807 794 803 802 795 792 788 781 778 778 778 779 779 778 779 779 781 782 783 785 786 787 788 789 790 791 793 794 796 798 800 802 804 806 807 808 810 812 813 814 816 818 819 821 822 823 824 825 827 830 832 834 836 838 839 841 842 843 844
843 847 849 846 848 848 844 844 846 844 843 851 862 862 856 855 855 856 855 855 861 860 856 857 858 855 838 806 798 808 805 795 788 780 775 772 773 776 777 778 778 779 780 781 781 781 782 784 785 786 787 788 789 791 792 794 796 798 800 802 803 805 806 807 809 810 812 814 816 818 819 821 822 823 825 826 828 830 832 834 835 837 838 840 841 842
845 848 847 844 843 842 844 854 854 844 843 857 865 860 858 860 859 859 857 854 861 859 850 853 854 847 825 797 795 807 803 792 781 773 771 769 772 775 776 777 778 779 781 781 781 781 781 782 783 784 785 787 788 789 791 792 794 795 797 799 800 802 804 805 806 808 811 813 814 816 817 819 820 821 823 825 827 828 830 832 833 834 836 837 839 840
849 853 851 846 843 844 851 861 862 854 851 858 858 853 855 858 857 859 857 855 857 852 848 851 849 846 829 796 785 794 791 783 775 771 769 769 771 773 774 777 778 779 780 780 780 780 781 782 782 783 784 785 786 787 789 790 792 794 795 797 798 800 802 803 804 807 809 810 812 813 814 816 817 819 821 822 823 825 826 828 829 831 833 835 836 837
848 850 848 847 849 849 851 856 863 863 860 856 849 848 853 855 857 859 858 861 858 848 854 863 861 858 838 799 783 785 784 782 780 775 770 768 769 771 773 777 778 779 778 778 779 778 780 781 781 783 783 783 784 784 786 788 790 792 793 795 797 799 800 801 802 804 806 808 810 811 812 814 815 816 817 818 819 821 822 824 826 829 831 832 834 835
843 842 845 848 852 849 843 849 861 863 859 853 846 848 853 854 859 859 858 864 857 851 863 871 868 858 827 793 785 784 779 779 780 777 774 771 770 770 773 776 777 779 778 777 778 777 778 779 779 781 782 782 783 783 784 786 788 790 792 794 796 796 798 800 801 802 804 806 807 809 810 812 814 814 814 816 817 818 820 822 824 826 828 829 831 832
840 841 846 847 847 845 837 839 852 856 855 850 842 844 848 855 865 863 864 870 859 855 868 871 864 849 816 787 780 776 770 772 775 773 772 772 772 770 771 775 776 777 777 776 777 776 776 777 778 779 779 780 781 782 783 785 786 788 790 792 794 795 797 799 800 801 803 805 806 807 809 811 812 811 812 815 815 816 819 820 822 823 825 826 827 829
837 835 835 836 835 837 833 828 831 838 846 845 837 838 841 843 848 850 854 855 849 855 871 874 860 834 806 785 776 774 772 774 776 774 774 774 773 772 772 774 776 774 773 773 775 775 774 774 776 776 777 777 778 780 781 782 784 786 788 790 792 793 795 797 799 800 801 803 804 805 807 808 809 809 811 813 813 815 817 818 820 821 822 824 825 827
835 827 823 830 830 829 830 826 825 831 842 847 843 843 842 830 828 846 860 857 855 860 862 864 848 812 790 779 771 773 771 768 772 775 778 777 774 776 773 771 773 771 770 771 772 772 771 773 774 774 775 775 776 777 778 779 781 783 785 787 789 791 793 795 797 798 799 801 802 803 804 805 806 807 809 810 812 814 815 816 817 819 820 822 824 825
831 828 830 836 833 832 832 829 829 830 835 845 848 843 839 831 827 846 869 872 870 859 842 842 832 802 787 777 765 768 767 761 764 767 770 770 771 775 772 768 769 767 767 769 770 769 769 770 772 772 772 773 774 775 775 777 778 779 782 784 787 789 791 793 794 795 797 798 799 800 800 802 803 804 806 807 809 811 813 815 816 817 819 820 822 823
818 824 835 839 834 836 841 835 833 833 833 840 844 835 833 838 835 836 850 861 865 856 837 832 823 803 796 784 765 766 769 763 762 762 761 761 762 766 766 766 767 763 764 767 767 767 768 768 770 770 770 771 771 773 774 775 777 778 780 782 784 785 787 789 791 792 794 795 796 797 797 799 801 802 804 806 808 810 811 813 814 815 816 818 820 821
814 819 833 844 840 837 841 837 834 837 837 837 835 830 831 839 839 837 843 846 849 851 839 827 820 810 799 782 766 765 767 763 760 759 758 757 757 756 757 761 764 762 763 764 764 765 765 766 767 767 768 768 769 771 772 773 775 776 778 779 781 782 784 786 788 790 791 792 794 794 794 797 799 800 802 804 806 808 809 810 811 813 814 816 818 818
814 816 826 843 844 838 839 836 830 833 839 840 836 834 835 834 831 832 834 830 829 835 832 820 815 803 782 769 765 761 759 758 757 755 756 756 754 753 753 755 758 760 760 760 760 761 762 764 765 765 766 766 767 768 769 771 773 774 776 777 779 780 782 784 785 787 788 790 791 791 792 795 797 798 800 802 804 805 806 808 809 811 812 814 815 816
815 816 820 837 845 838 833 826 819 819 828 835 833 833 837 834 833 832 828 824 822 823 825 821 812 787 760 754 759 757 754 754 754 754 754 754 752 753 755 755 755 756 756 756 756 757 760 762 763 764 765 765 766 766 767 768 769 771 773 774 776 778 779 781 783 784 785 786 787 788 790 792 794 796 798 800 801 802 804 806 807 809 811 812 813 814
812 814 817 832 839 829 819 816 817 814 812 818 819 819 820 821 830 834 828 828 830 825 822 823 815 783 752 750 755 752 752 752 753 756 754 752 752 753 754 755 756 755 753 753 754 755 758 760 762 764 764 765 765 764 764 765 766 768 769 771 773 775 776 778 780 781 782 783 784 785 788 790 791 793 795 797 798 800 802 803 805 807 808 810 811 812
803 810 814 822 823 818 817 824 830 825 814 814 814 810 807 808 815 819 820 826 833 831 826 826 822 786 750 750 757 753 756 761 761 762 756 751 752 753 752 753 757 757 754 753 755 755 758 759 761 762 762 764 765 763 762 762 763 765 767 768 770 771 773 775 776 778 779 780 782 783 786 787 789 791 792 794 796 797 799 800 802 805 806 807 809 810
804 811 813 814 813 815 820 824 829 829 823 818 814 810 811 809 806 809 816 820 822 824 823 826 827 794 753 753 763 759 762 767 765 764 761 754 751 753 753 753 756 758 756 755 756 757 758 760 761 761 760 762 763 762 760 758 758 762 764 766 767 767 769 771 773 774 776 777 779 781 783 784 786 788 789 791 792 794 796 798 800 802 803 805 807 808
804 809 810 814 815 817 821 821 823 826 824 817 809 809 812 810 810 817 823 823 819 815 812 814 815 788 754 754 765 763 760 759 757 761 764 759 753 752 754 754 754 756 756 755 755 756 758 759 758 757 758 760 760 759 759 757 755 757 760 762 764 766 767 769 770 771 773 774 776 777 779 781 782 784 785 787 789 791 793 795 797 799 801 802 804 807
799 803 805 811 814 813 812 808 804 808 816 817 811 809 809 807 811 815 816 821 818 808 804 805 799 778 754 752 760 761 760 757 754 756 761 761 758 755 755 754 752 753 754 753 752 753 754 753 752 754 756 758 757 755 757 756 752 753 756 758 760 762 765 766 767 768 770 771 772 773 775 776 778 779 781 784 786 788 790 792 794 796 798 799 801 804
800 800 798 800 799 794 789 784 783 791 803 810 806 804 806 805 805 807 809 811 808 801 799 794 787 777 760 751 752 754 755 756 752 751 753 754 756 756 755 754 752 752 755 753 751 751 750 748 749 752 753 754 753 751 753 754 751 749 752 754 756 759 761 763 764 765 766 768 769 770 770 772 773 775 778 780 783 785 787 789 791 793 794 796 798 800
802 802 797 795 791 784 777 773 777 785 791 794 795 795 800 803 805 809 807 798 794 799 795 781 777 778 767 754 749 746 748 753 752 750 749 749 751 752 753 754 753 752 752 751 751 750 747 746 748 749 750 750 749 748 749 751 749 747 748 751 752 755 757 759 760 761 763 764 765 766 767 768 770 772 775 777 780 782 784 785 788 790 791 793 795 796
801 802 797 795 793 787 779 775 778 783 784 784 786 787 790 797 803 806 801 790 787 791 784 769 767 771 766 755 745 738 740 745 746 746 747 748 749 749 750 751 750 748 746 745 748 748 745 744 744 745 747 747 746 745 746 748 747 745 745 747 749 751 753 755 757 758 759 760 760 761 763 765 767 769 772 774 777 778 781 783 785 787 789 791 792 794
799 802 797 796 797 792 784 779 778 783 786 785 785 785 786 791 796 796 791 783 778 776 770 765 764 761 754 746 738 733 735 738 740 743 746 747 747 746 746 746 744 743 742 741 742 742 741 740 740 741 744 744 743 741 742 744 744 741 742 744 745 746 749 751 753 754 755 755 756 758 760 762 764 766 769 771 774 776 778 780 782 784 787 789 790 792
799 799 796 798 802 796 787 781 778 782 788 789 787 787 786 787 789 789 783 777 776 775 770 768 768 757 742 735 734 734 735 739 742 743 744 743 742 741 741 741 741 740 739 737 736 736 736 737 737 738 740 739 738 737 738 739 739 738 738 740 741 742 745 747 749 750 751 752 754 756 758 760 761 764 766 768 771 773 775 778 780 782 785 787 789 791
802 802 801 805 807 797 785 782 783 785 791 795 791 787 784 781 780 780 779 777 776 776 774 774 773 757 737 733 738 735 734 740 741 740 741 739 737 738 738 738 738 736 733 731 731 731 731 731 732 734 734 734 732 732 733 735 735 734 734 736 737 739 741 744 746 747 749 750 752 755 756 758 759 761 763 766 768 771 774 776 778 780 783 785 787 789
799 802 804 805 805 793 781 783 787 790 797 795 782 770 766 765 768 772 776 773 769 768 770 768 760 746 734 735 738 734 734 739 739 736 737 735 733 735 735 733 731 729 727 725 725 725 725 725 727 729 729 729 728 728 730 731 731 731 731 733 735 736 738 740 742 744 746 748 750 752 754 756 758 759 762 764 767 770 772 774 776 778 781 783 785 788
795 798 798 799 799 789 781 786 792 794 791 775 755 748 751 755 761 765 763 759 756 758 759 753 745 738 735 733 732 730 732 735 735 732 730 729 729 729 728 726 724 722 721 721 720 720 721 722 723 724 724 724 724 725 726 727 727 728 729 731 732 733 735 737 739 741 743 745 748 750 752 754 756 758 760 762 765 768 770 772 774 776 778 781 783 786
794 796 794 796 796 788 782 789 792 782 769 754 742 743 746 747 749 751 748 744 745 749 752 752 746 737 730 725 723 726 729 730 731 729 725 723 723 722 721 719 718 718 717 715 715 716 718 719 720 721 721 721 721 723 723 724 725 726 727 728 729 731 732 734 737 739 741 743 745 748 750 752 754 757 759 761 763 766 768 770 772 774 777 779 781 784
786 790 790 792 793 787 784 786 778 760 749 748 745 743 745 744 743 747 748 741 736 739 744 745 739 728 722 720 720 725 729 731 731 726 719 718 719 718 717 714 711 711 710 710 712 714 715 716 717 717 718 718 719 720 721 722 723 724 725 726 727 729 730 733 735 737 739 741 743 746 748 750 753 755 757 759 762 764 766 769 771 773 776 778 780 782
776 781 785 786 784 781 778 773 764 756 752 749 742 734 735 738 736 742 747 735 724 726 731 730 724 719 717 718 721 726 731 735 732 715 703 709 717 715 712 707 705 707 707 708 711 712 712 713 714 715 716 716 717 718 719 720 721 721 723 724 725 727 729 731 734 736 738 740 742 744 747 749 751 754 756 758 760 763 765 767 770 772 775 777 779 781
769 772 777 779 773 772 774 769 763 761 754 742 730 722 722 726 727 733 741 734 719 714 717 718 716 713 714 717 721 727 732 737 731 705 689 700 709 706 704 704 704 705 706 706 708 708 709 711 712 713 714 714 715 716 717 718 718 719 721 722 724 726 728 731 733 735 737 739 741 743 746 748 750 752 755 757 759 762 764 766 769 771 774 776 778 780
764 766 770 773 768 766 769 764 757 752 741 729 721 717 718 722 724 730 742 738 717 703 706 713 711 710 712 714 717 725 732 736 724 697 685 693 697 696 699 700 699 702 703 704 706 707 708 709 710 712 712 713 713 714 715 716 717 718 720 722 724 726 728 730 732 734 736 738 740 742 744 747 749 752 754 757 759 761 764 766 769 771 774 776 777 779
765 766 766 767 764 761 760 755 746 738 731 722 717 717 720 721 723 734 745 735 707 693 699 707 707 707 707 707 713 722 725 721 708 690 685 690 692 694 697 696 696 700 702 704 707 707 708 710 710 711 711 711 712 713 714 715 717 718 720 722 724 726 727 729 731 732 735 737 739 741 744 746 749 751 754 756 759 761 763 766 768 771 773 775 777 779
760 761 760 758 756 755 753 748 739 731 725 719 714 716 721 723 725 729 727 711 694 689 695 699 699 700 700 702 709 713 708 700 692 686 688 693 693 694 697 697 698 701 702 704 706 707 709 710 711 711 712 712 713 713 714 716 717 719 721 722 724 726 727 729 730 732 735 736 738 741 743 746 748 751 753 756 758 761 763 765 768 770 772 774 776 778
755 754 752 751 750 749 746 743 739 729 719 713 712 717 723 725 722 714 701 692 691 691 691 694 695 694 695 697 700 699 694 689 687 687 691 694 693 694 698 699 699 701 702 704 705 706 708 710 710 712 713 713 714 714 715 716 718 719 721 722 724 725 727 728 730 732 734 737 739 741 743 746 748 750 753 755 758 760 763 766 768 770 771 773 775 778
748 749 746 743 742 742 741 741 739 730 716 708 710 718 722 716 706 698 692 692 695 693 691 693 694 692 692 692 692 691 689 687 687 689 692 694 694 695 697 698 698 700 702 703 704 705 707 708 709 711 711 713 714 715 716 717 717 719 720 722 723 725 726 728 730 732 735 737 740 742 744 746 748 750 752 755 758 760 763 765 768 769 771 772 774 777
743 743 739 733 734 737 736 730 727 725 723 719 716 718 718 712 705 704 702 697 695 695 695 695 694 691 690 688 687 687 687 686 687 691 693 694 696 697 697 697 698 699 701 702 704 705 706 707 708 709 711 712 713 714 716 716 717 718 720 722 723 725 727 729 731 733 735 738 740 743 745 746 748 750 753 755 758 761 763 765 767 769 770 772 773 776
735 735 737 737 739 740 737 732 729 727 728 727 723 722 723 721 717 718 718 709 702 702 703 701 697 695 694 692 689 686 685 684 686 689 691 694 697 698 698 698 699 699 701 702 703 705 706 707 708 709 711 713 714 715 716 717 717 718 720 722 724 725 727 729 731 734 736 739 741 743 745 747 749 752 754 756 759 761 763 765 767 768 770 772 774 776
731 735 741 742 742 741 737 734 733 729 724 721 721 722 724 722 718 718 720 717 711 709 710 707 703 700 700 700 696 691 687 685 686 689 691 694 697 698 699 699 700 701 702 703 704 706 707 707 709 711 713 714 716 716 717 718 719 719 721 722 724 726 728 730 732 734 737 739 742 744 746 748 751 753 755 758 760 762 764 765 767 769 771 773 775 778
730 735 738 736 737 738 733 725 722 723 722 720 720 719 717 717 717 716 716 714 711 711 711 709 707 705 703 702 699 694 690 689 689 691 693 694 696 698 699 699 700 702 703 704 705 707 707 708 710 712 713 715 716 717 718 719 720 721 722 724 725 727 729 730 732 734 737 739 742 745 747 749 752 754 757 759 761 763 765 767 769 771 772 774 776 778
729 732 734 731 731 732 728 720 717 720 721 721 721 718 712 710 711 711 711 711 710 710 710 708 706 703 701 700 700 696 693 693 693 693 694 695 696 698 699 699 700 702 703 705 706 707 708 709 710 712 714 715 716 717 718 719 721 723 724 726 727 728 729 731 733 735 737 740 743 746 748 751 753 755 758 760 762 764 766 767 769 771 773 774 776 778
736 736 733 728 726 726 724 719 717 719 718 714 714 714 711 709 708 707 708 709 709 709 707 705 704 701 698 697 697 696 695 695 696 697 698 699 699 700 701 700 701 702 703 705 707 708 709 709 711 713 715 716 717 718 719 720 722 724 726 728 730 730 730 731 734 736 739 742 744 747 750 752 755 757 759 761 763 764 766 768 770 771 773 774 776 778
740 739 734 730 730 727 722 717 716 718 715 709 706 708 709 709 708 706 705 706 706 705 704 702 701 700 698 696 695 694 693 694 696 697 699 701 702 703 704 704 704 704 705 706 708 709 710 711 712 714 715 717 718 718 719 720 722 724 726 728 730 731 731 732 734 737 740 743 745 748 750 753 756 758 759 761 763 765 767 769 771 772 774 775 776 778
735 733 729 729 728 722 715 713 715 718 715 708 705 705 705 706 707 706 704 703 702 701 701 700 699 697 697 697 697 695 694 694 696 697 698 700 701 702 703 705 706 707 709 710 710 711 712 713 714 715 716 717 718 719 720 722 723 725 727 728 730 731 732 732 734 737 740 743 745 748 750 753 755 758 760 761 763 765 766 769 772 774 775 776 777 778